Wind_Gust
16 16 16 15 13 13 14 14 13 14 14 15 17 16 16 15 14 15 15 16 16 16 16 16 15 16 17 17 17 18 18 17 18 17 18 19 19 19 21 20 18 18
17 17 16 15 14 12 12 13 15 15 15 15 15 16 15 16 15 16 16 17 16 16 16 16 16 16 17 18 17 18 19 18 19 16 19 19 19 20 20 18 18 17
16 16 16 17 17 15 15 14 15 15 16 16 16 15 16 15 16 15 16 17 17 17 16 16 16 16 17 17 17 18 18 18 19 17 18 19 18 19 18 18 19 18
14 15 17 15 15 17 16 17 15 16 16 17 15 15 16 15 17 17 16 16 17 17 16 16 16 16 17 18 17 18 18 18 18 17 18 18 18 18 18 18 18 18
17 16 15 16 14 16 16 18 17 17 17 17 17 16 17 17 18 18 17 17 17 17 17 17 16 17 17 17 17 19 18 18 16 17 19 19 17 17 16 17 17 17
16 17 16 16 16 18 18 18 18 18 18 17 17 16 16 17 18 18 18 17 17 18 18 17 17 17 17 17 17 17 17 17 17 17 19 19 18 16 15 16 17 18
18 16 16 16 16 16 18 18 17 17 17 17 17 16 17 17 18 18 18 18 19 18 19 18 18 17 16 17 17 17 17 17 17 18 19 19 18 16 15 15 16 17
18 15 16 17 17 17 18 19 18 17 17 18 17 16 17 18 19 17 17 18 18 19 18 19 18 18 17 17 19 18 17 16 17 18 19 18 16 17 16 14 14 17
18 17 17 18 18 17 18 19 17 17 17 18 18 17 15 17 17 17 18 18 18 18 19 18 19 18 16 18 18 19 19 17 17 18 17 17 17 17 16 15 15 15
18 18 19 19 19 19 19 18 18 17 17 18 17 17 17 15 16 18 18 17 18 18 18 18 18 17 18 18 19 18 19 19 17 17 16 16 16 16 15 15 15 14
19 19 20 19 19 19 20 19 18 18 17 18 18 17 17 17 16 16 17 18 18 19 19 19 19 19 18 18 16 16 17 17 17 16 15 16 15 15 11 14 14 14
21 20 21 21 20 20 20 19 19 18 18 16 18 19 17 16 17 16 17 18 18 19 19 19 19 18 19 18 17 16 16 15 15 15 15 15 14 13 14 12 12 13
22 21 21 20 20 20 19 19 19 18 18 18 17 18 18 17 16 16 14 17 17 17 18 18 18 17 18 16 17 16 16 16 15 14 14 13 12 13 12 12 11 12
21 20 20 20 19 20 20 19 18 18 17 17 17 17 18 18 18 17 15 15 16 16 16 16 16 16 16 17 17 16 16 15 15 14 14 13 12 12 11 11 10 11
20 19 18 19 20 20 20 19 18 17 17 17 16 16 15 16 16 17 17 15 15 15 16 14 16 16 15 15 16 16 15 15 15 15 14 13 12 12 10 10 10 11
22 19 20 20 20 21 20 19 18 17 17 17 16 16 16 15 16 15 17 17 17 16 15 14 14 12 10 9 8 15 15 14 14 14 14 13 12 12 10 9 9 10
22 22 21 21 21 21 19 20 19 18 17 17 16 16 16 16 16 17 16 16 17 17 16 15 14 13 10 9 9 10 13 14 15 14 13 13 12 11 10 9 9 10
22 22 22 21 21 21 21 19 19 18 18 17 17 17 16 15 16 17 16 15 15 16 16 15 14 8 12 10 10 10 8 15 14 15 14 13 12 11 9 8 8 9
22 23 22 21 21 21 19 19 19 18 18 18 18 17 16 17 17 16 16 15 16 17 16 15 14 9 11 11 11 10 10 11 15 14 15 13 12 11 9 8 7 9
22 22 22 21 21 21 20 20 19 18 17 16 16 16 17 17 16 16 16 16 16 17 16 14 14 10 11 12 12 11 11 9 13 12 12 13 13 11 10 8 8 8
22 22 22 22 22 21 20 19 18 16 17 16 17 18 19 19 18 17 16 15 15 15 16 14 12 11 11 12 12 11 10 8 12 11 11 12 11 10 10 9 8 8
23 23 22 21 21 20 19 18 17 18 18 16 15 14 14 14 14 15 16 16 15 15 16 15 13 10 10 12 13 12 11 12 13 13 12 13 13 12 10 9 8 8
23 23 22 21 20 19 18 18 18 16 14 15 15 15 16 16 17 16 16 16 16 16 17 15 15 11 10 11 12 13 9 14 13 14 13 13 13 12 11 10 9 8
24 23 23 21 20 20 19 17 16 16 16 15 18 18 17 18 18 17 15 15 16 16 17 17 15 12 11 11 12 12 9 15 16 15 14 13 13 11 10 10 10 6
23 23 24 22 21 19 19 18 18 18 16 14 14 15 16 17 17 18 16 15 15 14 12 16 15 12 9 11 11 10 12 16 17 16 16 15 15 14 10 10 11 8
25 26 26 27 27 23 16 16 15 15 15 15 14 16 17 17 18 18 18 16 14 15 15 14 16 14 14 11 11 11 10 16 17 17 17 16 15 15 14 12 11 11
Wind_Speed
8 8 7 7 6 6 6 7 6 7 6 6 7 7 7 6 7 7 8 8 8 8 7 8 8 7 7 8 8 8 8 8 8 8 9 9 9 10 10 11 10 8
9 9 8 7 6 5 5 6 7 7 7 7 7 7 7 7 7 8 8 9 8 8 8 8 8 8 8 8 8 8 8 8 9 6 9 10 9 10 10 11 10 9
9 9 9 10 8 9 8 7 7 7 7 7 8 7 7 7 8 8 8 8 9 8 8 8 8 8 8 8 8 8 8 9 9 8 9 9 8 9 9 9 9 10
8 8 9 8 8 9 8 8 7 7 8 8 7 7 7 7 8 9 8 9 8 8 8 8 8 8 8 9 9 8 9 8 8 8 9 8 8 9 9 8 8 8
10 8 8 8 7 8 8 9 9 8 8 8 8 8 8 8 9 9 8 8 8 8 8 8 8 8 8 8 9 9 8 8 7 8 8 9 8 8 7 7 8 8
9 8 8 9 9 9 9 9 9 9 9 9 8 7 8 9 9 9 9 9 8 9 9 8 9 8 8 8 8 8 8 8 7 9 10 10 8 7 6 7 8 9
10 9 9 8 9 9 10 9 9 9 8 8 8 8 8 9 9 9 9 9 10 9 9 9 9 8 7 8 8 8 8 8 8 9 10 9 8 8 7 7 8 8
11 9 9 9 10 9 10 10 9 8 9 9 9 8 8 9 10 8 8 9 9 10 9 10 9 9 8 8 9 9 8 6 8 9 10 9 8 8 8 6 7 8
10 10 9 11 11 9 10 10 9 9 9 9 9 8 7 8 9 9 9 9 9 9 10 9 10 9 8 9 9 10 9 8 8 9 9 8 8 8 8 7 7 7
10 10 11 11 11 9 11 10 9 9 9 9 9 8 8 7 8 9 9 9 9 9 9 9 9 9 9 9 9 9 10 10 9 8 8 8 8 7 7 7 7 6
12 11 11 11 11 10 11 11 10 9 8 9 9 8 8 8 7 8 8 9 8 10 10 10 10 10 9 9 8 8 9 8 8 8 7 8 7 7 6 6 6 6
12 12 12 12 12 11 12 10 10 10 9 8 9 9 8 8 9 7 8 9 9 10 10 10 9 9 10 9 9 8 8 7 7 7 7 7 6 6 6 5 5 5
12 12 11 11 11 11 10 10 10 9 9 9 8 9 9 8 8 8 6 8 9 9 9 9 9 9 9 8 8 8 8 8 7 7 6 5 5 6 5 5 5 5
11 11 11 10 10 10 10 10 9 9 9 8 8 9 9 9 9 8 7 7 8 8 8 7 8 8 8 8 8 8 7 7 7 7 6 6 5 5 4 4 4 4
11 10 9 10 11 11 10 10 9 9 8 8 8 8 6 8 8 8 8 7 7 7 8 7 7 7 6 7 8 8 7 7 7 7 6 6 5 5 4 3 3 4
11 10 10 10 11 11 11 10 9 9 8 8 8 8 7 7 8 7 8 8 8 8 7 6 6 4 6 8 7 7 7 6 6 6 6 6 5 4 4 3 3 3
11 11 11 11 11 11 10 10 10 8 8 8 8 8 8 8 7 8 8 8 9 8 8 6 5 5 9 8 7 7 7 7 7 6 6 5 5 4 3 3 2 3
11 12 12 11 11 11 11 10 9 9 9 8 8 8 8 7 8 8 8 7 7 8 8 7 6 7 11 9 8 9 7 6 6 6 6 5 4 4 3 2 2 2
12 12 12 11 11 11 10 9 10 9 9 9 9 8 8 8 9 8 8 7 7 9 8 7 6 8 9 10 9 9 8 7 6 6 6 5 5 4 3 1 1 2
12 12 12 11 11 11 10 10 10 9 8 7 8 8 8 8 8 9 8 8 8 8 8 7 6 8 9 10 10 9 9 6 6 6 5 5 5 4 3 2 2 2
11 11 12 12 12 11 10 10 9 8 9 7 8 8 9 9 9 9 7 8 7 7 7 6 5 9 9 10 10 10 9 5 5 4 4 5 4 4 3 2 2 2
12 11 11 11 11 10 10 9 9 9 9 7 7 6 6 6 6 7 8 8 7 7 8 7 6 8 9 10 10 10 9 5 5 5 5 5 5 5 4 3 2 2
9 8 8 7 7 10 9 9 9 8 7 7 7 7 7 8 8 8 7 8 8 8 9 7 7 7 8 10 10 11 8 6 6 6 5 6 5 5 4 3 2 2
14 14 12 9 9 10 10 8 6 6 6 7 8 9 8 8 8 7 7 7 8 8 8 8 7 7 9 9 10 11 8 7 7 6 6 6 5 4 4 3 3 3
13 13 14 13 12 7 6 8 8 7 6 6 6 7 8 8 8 8 7 6 7 7 7 8 7 7 8 9 9 9 7 7 7 7 7 7 6 5 4 3 4 4
12 15 14 14 9 8 7 6 6 6 6 6 6 6 7 8 8 8 9 7 6 7 7 7 8 7 8 9 9 9 9 7 7 7 8 8 6 6 5 4 4 4
Wind_Direction
134 135 130 126 128 133 138 139 133 130 129 126 123 124 122 120 123 116 111 109 108 110 113 109 104 102 100 98 97 99 96 94 90 86 83 80 77 75 72 69 68 70
138 131 129 125 121 127 131 131 130 131 127 121 120 121 119 124 122 122 117 113 113 113 113 110 107 106 107 106 106 105 102 98 94 90 89 85 84 78 74 70 69 70
136 135 139 142 140 138 131 124 124 125 124 122 121 120 122 121 122 119 119 119 119 119 115 112 109 109 112 111 109 105 104 102 96 93 88 84 81 79 77 71 70 67
138 141 138 128 129 134 131 127 126 123 125 129 127 124 125 126 125 123 119 121 122 121 118 115 115 115 114 113 111 106 105 101 100 99 94 89 82 80 75 74 72 72
138 133 129 126 125 127 129 133 135 136 133 127 125 129 131 132 130 128 127 124 125 124 122 120 120 118 119 115 113 111 110 108 106 101 95 89 83 80 79 79 80 80
132 134 132 134 137 137 136 137 138 136 133 133 134 133 133 134 132 133 132 130 130 129 127 127 124 122 121 120 119 115 116 113 109 104 96 90 88 83 86 88 88 84
136 133 135 136 136 136 133 136 137 137 137 133 131 133 136 135 135 135 134 132 133 135 134 133 130 127 126 125 122 121 117 114 112 104 98 96 97 94 92 92 88 85
137 133 137 140 136 136 136 139 142 139 136 136 134 134 141 138 135 133 136 136 137 138 138 135 134 131 133 131 128 126 122 116 113 106 104 103 102 98 97 93 88 81
135 140 141 141 138 139 142 141 139 137 141 138 137 137 137 137 135 137 138 139 138 141 141 139 138 137 137 136 134 130 125 121 116 114 111 110 105 103 102 98 89 79
143 144 146 145 143 145 144 143 142 140 142 139 137 139 136 129 136 138 138 143 143 144 145 144 143 142 143 141 137 132 129 125 122 119 114 108 106 106 104 94 85 78
146 150 149 148 145 145 145 145 143 141 143 142 139 138 136 137 135 139 144 148 149 151 150 150 149 148 146 145 141 137 132 130 129 124 118 111 107 107 102 93 82 71
151 154 154 151 147 145 147 147 144 145 143 143 145 139 140 144 143 148 154 154 152 153 154 153 152 151 149 148 145 142 138 136 134 132 124 119 116 107 102 92 75 62
157 157 152 150 148 147 146 146 147 147 147 145 146 144 146 146 149 148 151 153 152 153 155 155 155 155 152 150 152 151 149 145 144 140 135 127 120 112 103 90 71 55
157 153 150 148 145 145 147 147 146 146 145 141 143 146 150 152 152 152 148 150 150 154 153 155 154 155 155 157 159 159 157 155 152 150 144 138 130 119 110 96 75 58
149 147 145 141 143 145 145 146 148 144 142 143 147 146 145 150 150 150 149 149 150 152 155 157 160 159 159 161 162 166 165 163 163 159 153 146 139 129 124 110 86 64
149 145 146 145 147 149 150 149 146 144 144 146 149 149 147 147 151 153 154 155 154 156 158 162 163 158 151 160 166 168 173 170 169 165 162 154 147 140 134 119 90 72
149 151 149 150 151 149 149 149 147 145 147 148 147 149 151 154 157 158 158 158 160 160 163 166 163 156 152 167 170 171 175 178 175 171 168 162 160 154 139 128 102 68
152 151 151 151 152 152 152 149 145 148 150 150 149 153 157 159 161 163 157 155 156 162 164 165 164 140 161 165 173 179 187 177 176 171 173 171 170 165 152 138 85 61
152 153 151 150 155 152 148 146 150 152 153 154 158 159 157 163 166 158 159 158 161 163 164 162 160 150 167 167 174 182 180 180 174 174 178 178 177 177 166 145 63 53
152 153 151 152 151 150 148 151 156 158 155 154 150 155 160 161 160 161 158 163 166 166 161 158 156 157 170 172 174 172 172 187 167 175 182 179 181 173 171 149 78 52
153 149 151 152 152 150 152 155 156 149 153 155 158 164 164 164 164 164 162 164 165 163 158 156 144 152 170 171 168 163 165 180 157 161 170 171 168 166 166 135 112 86
151 149 146 144 147 150 154 155 154 156 158 157 156 156 154 150 153 162 161 164 164 164 159 154 143 159 166 169 163 157 163 174 162 164 166 165 163 164 161 143 127 100
82 86 89 113 147 153 157 158 155 155 152 154 152 155 153 164 165 167 166 163 164 170 163 151 151 168 171 170 163 161 175 173 165 174 167 167 167 162 159 145 141 119
144 149 158 159 162 171 162 153 146 140 147 159 162 163 167 170 165 164 165 166 168 171 166 156 154 157 173 173 165 175 185 174 178 179 171 171 163 167 165 152 107 91
158 153 157 165 177 164 144 148 153 155 158 166 167 163 163 163 167 166 167 167 170 167 152 155 152 154 175 175 173 177 189 184 183 178 176 176 174 170 174 160 144 147
161 170 168 164 155 140 144 147 144 143 158 164 163 168 163 168 170 170 168 168 160 162 165 165 155 158 171 178 175 184 200 195 184 180 181 176 184 179 174 173 161 155